ROMMA est une association bénévole à but non lucratif. Votre soutien est indispensable : ADHERER à ROMMA ou FAIRE un DON

Val-d'Arly - (73, Savoie)

Beaufortain (2050 m)   Longitude: 06° 35' 21" E   Latitude: 45° 46' 53" N Station romma n°118
 

Détail journalier du     <<     >>

Température Humidité Vent Dir Rafale Dir. rafale Ensol.
Heure (°C) (%) (km/h) (km/h) (min)
01:00 2.57812---18---0
02:00 2.3809---16---0
03:00 1.6836---10---0
04:00 1.4857---15---0
05:00 1.68613---16---0
06:00 1.78513---19---0
07:00 2.38213---19---0
08:00 2.87613---19---0
09:00 3.17115---21---50
10:00 3.76520---27---60
11:00 4.65215---26---50
12:00 5.15111---27---20
13:00 5.94011---19---30
14:00 5.94915---19---40
15:00 6.44016---21---60
16:00 6.14411---24---40
17:00 6.42719---29---0
18:00 7.42926---37---0
19:00 7.33423---32---0
20:00 7.94125---34---0
21:00 8.14225---37---0
22:00 8.74230---47---0
23:00 9.04030---42---0
minuit 9.04030---42---0

Graphique du 26-11-2019

 

Serveur OMMA